Location: Observatoire
(46.1952°N, 5.3391°E)
Time: 22:55:44
(UTC+01:00)

Courier 1B Rocket - Pass Details

Date: 24 February 2026
Orbit: 920 x 1201 km, 28.2° (Epoch: 11 March)

Event Time Altitude Azimuth Distance (km) Brightness Sun altitude
Rises 18:22:15 0° 229° (SW) 3,586 9.2 -1.6°
Reaches altitude 10° 18:26:16 10° 205° (SSW) 2,614 7.8 -2.3°
Maximum altitude 18:29:19 14° 176° (S) 2,327 7.1 -2.8°
Drops below altitude 10° 18:32:20 10° 146° (SE) 2,600 7.0 -3.3°
Sets 18:36:19 0° 122° (ESE) 3,554 7.5 -4.0°
